Regional Weather Roundup
Issued by NWS

Home | Current Version | Previous Version | Text Only | Print | Product List | Glossary Off
Versions: 1 2 3 4 5 6 7 8 9 10 11 12 13 14 15 16 17 18 19 20 21 22 23 24 25 26 27 28 29 30 31 32 33 34 35 36 37 38 39 40 41 42 43 44 45 46 47 48 49 50

000
ASUS45 KSLC 291510
RWRUT

UTAH REGIONAL WEATHER ROUNDUP
NATIONAL WEATHER SERVICE SALT LAKE CITY UT
900 AM MDT FRI MAY 29 2015

UTZ001>011-023>025-291600-

NORTHERN UTAH

CITY           SKY/WX    TMP DP  RH WIND       PRES   REMARKS
BRIGHAM CITY   SUNNY     55  47  73 CALM      30.22R
HILL AFB       SUNNY     55  42  62 E15       30.22R
LOGAN          SUNNY     51  46  83 N3        30.24R
OGDEN          SUNNY     58  44  60 CALM      30.21R
PROVO AIRPORT  SUNNY     57  39  51 SE6       30.24R
SALT LAKE CITY MOSUNNY   60  44  55 SE3       30.20R
VERNAL         SUNNY     55  43  63 E3        30.26R
WENDOVER       SUNNY     63  46  55 CALM      30.20S
HEBER CITY     SUNNY     48  37  66 NW3       30.28R
WEST JORDAN    SUNNY     61  45  55 SE3       30.22R

$$

UTZ012>022-026-027-291600-

SOUTHERN/CENTRAL UTAH

CITY           SKY/WX    TMP DP  RH WIND       PRES   REMARKS
BLANDING       SUNNY     63  38  38 CALM      30.29S
BRYCE CANYON   MOSUNNY   53  38  56 VRB3      30.32S
CEDAR CITY     SUNNY     58  44  60 CALM      30.20R
DELTA          SUNNY     59  43  56 CALM      30.20S
HANKSVILLE     SUNNY     63  41  45 CALM      30.22R
MILFORD        MOSUNNY   55  47  74 SE3       30.20R
MOAB/CYNLANDS  SUNNY     63  40  42 E8        30.19R
PRICE          SUNNY     62  35  36 NE9       30.24R
ST GEORGE      SUNNY     72  43  35 NW3       30.08R
KANAB          MOSUNNY   64  39  39 NE5       30.22R

$$

REGIONAL REPORTS     COLORADO/ARIZONA

CITY           SKY/WX    TMP DP  RH WIND       PRES   REMARKS
CRAIG, CO      MOSUNNY   49  41  74 CALM      30.30R
GRAND JUNCTION SUNNY     57  43  59 SE7       30.23R
RIFLE            N/A     51  41  68 CALM      30.27S
MONTROSE       SUNNY     53  42  66 NW3       30.28R
CORTEZ         SUNNY     58  39  49 CALM      30.22S
PAGE, AZ       PTSUNNY   71  40  32 CALM      30.14R
GRAND CANYON   SUNNY     65  37  35 E10       30.27R
KINGMAN        SUNNY     79  21  11 E5        30.05R
FLAGSTAFF      SUNNY     62  36  37 E8        30.29R

$$

REGIONAL REPORTS    NEVADA/IDAHO/WYOMING

CITY           SKY/WX    TMP DP  RH WIND       PRES   REMARKS
LAS VEGAS, NV  MOSUNNY   83  30  14 SW3       29.94R
ELY            SUNNY     55  43  63 CALM      30.26R
ELKO           SUNNY     58  42  55 NE5       30.19S
POCATELLO, ID  SUNNY     56  47  71 CALM      30.24R
BURLEY         SUNNY     59  48  67 NE8       30.19R
EVANSTON, WY   MOSUNNY   49  40  71 NE3       30.31R
ROCK SPRINGS   MOSUNNY   49  41  74 E8        30.32R
KEMMERER       MOSUNNY   48  37  66 E7        30.33R

$$



USA.gov is the U.S. government's official web portal to all federal, state and local government web resources and services.